TimeCST,TemperatureF,Dew PointF,Humidity,Sea Level PressureIn,VisibilityMPH,Wind Direction,Wind SpeedMPH,Gust SpeedMPH,PrecipitationIn,Events,Conditions,WindDirDegrees,DateUTC
12:53 AM,27.0,19.9,75,30.32,10.0,East,5.8,-,N/A,,Clear,80,2013-01-27 06:53:00
1:53 AM,28.0,21.0,75,30.32,10.0,East,6.9,-,N/A,,Clear,100,2013-01-27 07:53:00
2:53 AM,30.0,24.1,79,30.31,8.0,ESE,6.9,-,N/A,,Partly Cloudy,110,2013-01-27 08:53:00
3:53 AM,30.9,26.1,82,30.30,7.0,ESE,8.1,-,N/A,,Mostly Cloudy,120,2013-01-27 09:53:00
4:53 AM,32.0,27.0,82,30.29,7.0,ESE,4.6,-,N/A,,Mostly Cloudy,110,2013-01-27 10:53:00
5:53 AM,33.1,27.0,78,30.29,6.0,East,8.1,-,N/A,,Haze,100,2013-01-27 11:53:00
6:53 AM,34.0,28.0,79,30.30,7.0,East,5.8,-,N/A,,Overcast,100,2013-01-27 12:53:00
7:53 AM,34.0,28.9,82,30.30,5.0,ESE,9.2,-,0.00,,Overcast,120,2013-01-27 13:53:00
8:53 AM,36.0,30.9,82,30.30,4.0,ESE,5.8,-,0.00,Rain,Light Rain,120,2013-01-27 14:53:00
9:53 AM,37.0,32.0,82,30.30,5.0,ESE,6.9,-,0.00,,Haze,120,2013-01-27 15:53:00
10:53 AM,37.9,33.1,83,30.29,4.0,ESE,5.8,-,0.00,Rain,Light Rain,120,2013-01-27 16:53:00
11:53 AM,37.9,35.1,89,30.27,3.0,ESE,6.9,-,0.03,Rain,Light Rain,120,2013-01-27 17:53:00
12:06 PM,37.4,35.6,93,30.25,2.5,ESE,5.8,-,0.01,Rain,Light Rain,120,2013-01-27 18:06:00
12:53 PM,39.0,37.0,93,30.22,2.5,SE,8.1,-,0.05,Rain,Light Rain,130,2013-01-27 18:53:00
1:10 PM,39.2,37.4,93,30.20,1.8,ESE,8.1,-,0.01,Rain,Light Rain,120,2013-01-27 19:10:00
1:19 PM,39.2,37.4,93,30.19,2.0,SE,6.9,-,0.01,Rain,Light Rain,130,2013-01-27 19:19:00
1:53 PM,39.9,39.0,97,30.19,3.0,ESE,8.1,-,0.03,Rain,Light Rain,120,2013-01-27 19:53:00
1:56 PM,39.2,39.2,100,30.18,2.5,SE,6.9,-,0.00,Rain,Light Rain,130,2013-01-27 19:56:00
2:12 PM,41.0,39.2,93,30.17,3.0,SE,6.9,-,0.00,Rain,Light Rain,130,2013-01-27 20:12:00
2:53 PM,43.0,41.0,93,30.17,4.0,SE,6.9,-,0.01,Rain,Light Rain,140,2013-01-27 20:53:00
3:53 PM,44.1,42.1,93,30.16,5.0,SE,4.6,-,0.00,,Overcast,140,2013-01-27 21:53:00
4:53 PM,45.0,43.0,93,30.16,4.0,ESE,5.8,-,N/A,,Overcast,120,2013-01-27 22:53:00
5:35 PM,44.6,42.8,93,30.14,6.0,ESE,5.8,-,N/A,,Overcast,120,2013-01-27 23:35:00
5:53 PM,44.1,42.1,93,30.14,6.0,ESE,6.9,-,N/A,,Overcast,120,2013-01-27 23:53:00
6:53 PM,46.0,42.1,86,30.14,10.0,SSE,8.1,-,N/A,,Overcast,150,2013-01-28 00:53:00
7:53 PM,46.9,43.0,86,30.12,10.0,SE,8.1,-,N/A,,Scattered Clouds,140,2013-01-28 01:53:00
8:53 PM,51.1,44.1,77,30.11,10.0,South,10.4,-,N/A,,Clear,170,2013-01-28 02:53:00
9:53 PM,51.1,44.1,77,30.11,10.0,South,11.5,19.6,N/A,,Partly Cloudy,170,2013-01-28 03:53:00
10:53 PM,51.1,44.1,77,30.10,10.0,South,15.0,20.7,N/A,,Clear,170,2013-01-28 04:53:00
11:53 PM,52.0,44.1,74,30.09,10.0,South,10.4,-,N/A,,Scattered Clouds,180,2013-01-28 05:53:00